Weather in Petropolis

Brazil     22°30′13″S   43°10′55″W
temp.,
°C
wind,
m/s
gust,
m/s
humid.,
%
clouds,
%
prec.,
mm/h
press.,
hPa
HPBL,
m
14 may, fri
fri1400:00+15sse129997 0.4 1022193
03:00+14sse119990 0.8 1021115
06:00+14se019963 0.1 102153
09:00+16s119252 0.2 1023307
12:00+19s217394 0.2 10211054
15:00+17se118550 0.4 1020324
18:00+14ese119726 0.1 102125
21:00+13e119742 0.1 102227
15 may, sat
sat1500:00+13n119668 0.0 102117
03:00+13nne229483 0.0 101950
06:00+13n119445 0.0 102016
09:00+18nne017342 0.0 1021593
12:00+20s016869 0.1 1020884
15:00+19sse117384 0.1 1018719
18:00+15ese119555 0.2 102023
21:00+15ne119543 0.2 102120
16 may, sun
sun1600:00+15nne119265 0.0 102020
03:00+13n11965 0.0 101914
06:00+13n11955 0.0 102016
09:00+19nw017316 0.0 1021575
12:00+21ssw026678 0.1 1019928
15:00+20sse117477 0.3 1017640
18:00+16ne119468 0.2 101912
21:00+15nnw119624 0.2 102013
17 may, mon
mon1700:00+15n11956 0.0 101916
03:00+14nne219393 0.0 101830
06:00+14n239494 0.0 101861
09:00+19n237511 0.0 1019473
12:00+23nw12598 0.0 10171108
15:00+23s0258100 0.1 1014890
18:00+17nne21879 0.1 101621
21:00+17n11821 0.1 101619
18 may, tue
tue1800:00+16n21870 0.0 101623
03:00+15n11910 0.0 101611
06:00+14nw119786 0.7 101716
09:00+19ssw118716 0.9 1018391
12:00+21ssw227169 0.1 10171020
15:00+18s239277 0.6 1016303
18:00+16se139890 0.4 1018198
21:00+16sse129984 0.7 1019159